Weather History for Marco Island Airport, FL

Change the Weather History Date:

Thursday, April 17, 2014

  Actual Average (KAPF) Record (KAPF)
Temperature  
Mean Temperature 78 °F 73 °F  
Max Temperature 87 °F 83 °F 90 °F (1979)
Min Temperature 69 °F 64 °F 47 °F (1962)
Degree Days  
Heating Degree Days 0 0  
Month to date heating degree days 0  
Since 1 July heating degree days 256  
Cooling Degree Days 13 8  
Month to date cooling degree days 127  
Year to date cooling degree days 494  
Growing Degree Days 28 (Base 50)    
Moisture  
Dew Point 69 °F    
Average Humidity 81    
Maximum Humidity 89    
Minimum Humidity 55    
Precipitation  
Precipitation 0.34 in 0.09 in 0.82 in (2013)
Month to date precipitation 1.42  
Year to date precipitation 7.75  
Snow  
Snow 0.00 in - - ()
Month to date snowfall  
Since 1 July snowfall  
Snow Depth -    
Sea Level Pressure  
Sea Level Pressure 30.08 in    
Wind  
Wind Speed 9 mph (ENE)    
Max Wind Speed 17 mph    
Max Gust Speed 24 mph    
Visibility 10 miles    
Events Thunderstorm    
T = Trace of Precipitation, MM = Missing Value Source: NWS Daily Summary

Daily Weather History Graph

Daily Weather History Graph

Search for Another Location

Airport:

Trip Planner

Search our weather history database for the weather conditions in past years. The results will help you decide how hot, cold, wet, or windy it might be!

Date:

Astronomy

Apr. 17, 2014 Rise Set
Actual Time 7:01 AM EDT 7:51 PM EDT
Civil Twilight 6:38 AM EDT 8:14 PM EDT
Nautical Twilight 6:10 AM EDT 8:42 PM EDT
Astronomical Twilight 5:41 AM EDT 9:11 PM EDT
Moon 10:23 PM EDT (4/17) 8:42 AM EDT (4/17)
Length of Visible Light 13h 36m
Length of Day
12h 49m
Waning Gibbous, 94% of the Moon is Illuminated
Apr 17
Waning Gibbous
Apr 22
Last Quarter
Apr 29
New
May 6
First Quarter
May 14
Full

Hourly Weather History & Observations

Time (EDT) Temp. Heat Index Dew Point Humidity Pressure Visibility Wind Dir Wind Speed Gust Speed Precip Events Conditions
12:15 AM 71.6 °F - 64.4 °F 78% 30.08 in 10.0 mi ENE 5.8 mph - N/A   Overcast
12:35 AM 71.6 °F - 64.4 °F 78% 30.08 in 10.0 mi ENE 6.9 mph - N/A   Overcast
12:55 AM 71.6 °F - 64.4 °F 78% 30.07 in 10.0 mi ENE 11.5 mph - N/A   Overcast
1:15 AM 71.6 °F - 64.4 °F 78% 30.07 in 10.0 mi ENE 9.2 mph - N/A   Mostly Cloudy
1:35 AM 71.6 °F - 64.4 °F 78% 30.07 in 10.0 mi ENE 10.4 mph - N/A   Mostly Cloudy
1:55 AM 71.6 °F - 64.4 °F 78% 30.06 in 10.0 mi NE 8.1 mph - N/A   Mostly Cloudy
2:15 AM 71.6 °F - 64.4 °F 78% 30.06 in 10.0 mi ENE 9.2 mph - N/A   Mostly Cloudy
2:35 AM 71.6 °F - 64.4 °F 78% 30.05 in 10.0 mi ENE 8.1 mph - N/A   Partly Cloudy
2:55 AM 69.8 °F - 64.4 °F 83% 30.05 in 10.0 mi ENE 6.9 mph - N/A   Clear
3:15 AM 69.8 °F - 64.4 °F 83% 30.05 in 10.0 mi ENE 5.8 mph - N/A   Clear
3:35 AM 69.8 °F - 64.4 °F 83% 30.04 in 10.0 mi ENE 5.8 mph - N/A   Clear
3:55 AM 69.8 °F - 64.4 °F 83% 30.04 in 10.0 mi ENE 4.6 mph - N/A   Clear
4:15 AM 69.8 °F - 64.4 °F 83% 30.05 in 10.0 mi NE 5.8 mph - N/A   Clear
4:35 AM 69.8 °F - 66.2 °F 88% 30.05 in 10.0 mi ENE 5.8 mph - N/A   Clear
4:55 AM 69.8 °F - 66.2 °F 88% 30.04 in 10.0 mi ENE 6.9 mph - N/A   Mostly Cloudy
5:15 AM 69.8 °F - 66.2 °F 88% 30.05 in 10.0 mi ENE 8.1 mph - N/A   Overcast
5:35 AM 69.8 °F - 66.2 °F 88% 30.05 in 10.0 mi ENE 8.1 mph - N/A   Scattered Clouds
5:55 AM 69.8 °F - 66.2 °F 88% 30.06 in 10.0 mi ENE 6.9 mph - N/A   Partly Cloudy
6:15 AM 69.8 °F - 66.2 °F 88% 30.06 in 10.0 mi NE 8.1 mph - N/A   Clear
6:35 AM 69.8 °F - 66.2 °F 88% 30.06 in 10.0 mi NE 6.9 mph - N/A   Clear
6:55 AM 69.8 °F - 66.2 °F 88% 30.08 in 10.0 mi NE 6.9 mph - N/A   Clear
7:15 AM 69.8 °F - 66.2 °F 88% 30.08 in 10.0 mi NE 6.9 mph - N/A   Clear
7:35 AM 69.8 °F - 66.2 °F 88% 30.09 in 10.0 mi NE 8.1 mph - N/A   Clear
7:55 AM 69.8 °F - 66.2 °F 88% 30.09 in 10.0 mi NE 8.1 mph - N/A   Clear
8:15 AM 71.6 °F - 66.2 °F 83% 30.10 in 10.0 mi NE 6.9 mph - N/A   Clear
8:35 AM 73.4 °F - 68.0 °F 83% 30.10 in 10.0 mi ENE 10.4 mph - N/A   Clear
8:55 AM 75.2 °F - 68.0 °F 78% 30.10 in 10.0 mi ENE 10.4 mph - N/A   Clear
9:15 AM 75.2 °F - 69.8 °F 83% 30.10 in 10.0 mi ENE 12.7 mph 16.1 mph N/A   Clear
9:35 AM 78.8 °F - 69.8 °F 74% 30.11 in 10.0 mi East 12.7 mph 16.1 mph N/A   Clear
9:55 AM 78.8 °F - 71.6 °F 78% 30.11 in 10.0 mi ENE 12.7 mph 17.3 mph N/A   Partly Cloudy
10:15 AM 80.6 °F 84.6 °F 71.6 °F 74% 30.12 in 10.0 mi East 12.7 mph - N/A   Scattered Clouds
10:35 AM 80.6 °F 84.6 °F 71.6 °F 74% 30.12 in 10.0 mi East 10.4 mph 16.1 mph N/A   Mostly Cloudy
10:55 AM 82.4 °F 87.2 °F 71.6 °F 70% 30.13 in 10.0 mi East 10.4 mph 17.3 mph N/A   Overcast
11:15 AM 82.4 °F 87.2 °F 71.6 °F 70% 30.13 in 10.0 mi East 11.5 mph 16.1 mph N/A   Mostly Cloudy
11:35 AM 82.4 °F 87.2 °F 71.6 °F 70% 30.13 in 10.0 mi East 9.2 mph - N/A   Mostly Cloudy
12:15 PM 84.2 °F 89.6 °F 71.6 °F 66% 30.11 in 10.0 mi East 8.1 mph - N/A   Mostly Cloudy
12:35 PM 87.8 °F 93.8 °F 71.6 °F 58% 30.10 in 10.0 mi East 8.1 mph - N/A   Scattered Clouds
12:55 PM 87.8 °F 92.6 °F 69.8 °F 55% 30.10 in 10.0 mi East 8.1 mph - N/A   Scattered Clouds
1:15 PM 87.8 °F 92.6 °F 69.8 °F 55% 30.09 in 10.0 mi ESE 3.5 mph - N/A   Mostly Cloudy
1:35 PM 86.0 °F 90.4 °F 69.8 °F 58% 30.09 in 10.0 mi East 6.9 mph - N/A   Mostly Cloudy
1:55 PM 87.8 °F 92.6 °F 69.8 °F 55% 30.08 in 10.0 mi ENE 6.9 mph - N/A   Mostly Cloudy
2:15 PM 86.0 °F 90.4 °F 69.8 °F 58% 30.07 in 10.0 mi ENE 6.9 mph - N/A   Mostly Cloudy
2:35 PM 84.2 °F 88.4 °F 69.8 °F 62% 30.06 in 10.0 mi East 5.8 mph - N/A   Mostly Cloudy
2:55 PM 78.8 °F - 73.4 °F 83% 30.07 in 7.0 mi ESE 17.3 mph 24.2 mph 0.03 in   Mostly Cloudy
3:15 PM 75.2 °F - 71.6 °F 89% 30.07 in 5.0 mi ESE 15.0 mph 24.2 mph 0.26 in Thunderstorm Thunderstorm
3:35 PM 75.2 °F - 71.6 °F 89% 30.07 in 10.0 mi East 15.0 mph 21.9 mph 0.31 in Thunderstorm Thunderstorm
3:55 PM 75.2 °F - 71.6 °F 89% 30.07 in 10.0 mi ENE 12.7 mph 24.2 mph 0.31 in Thunderstorm Overcast
4:15 PM 73.4 °F - 69.8 °F 88% 30.04 in 10.0 mi East 15.0 mph 23.0 mph N/A Thunderstorm Mostly Cloudy
4:35 PM 73.4 °F - 68.0 °F 83% 30.06 in 10.0 mi ENE 10.4 mph - N/A Thunderstorm Mostly Cloudy
4:55 PM 73.4 °F - 69.8 °F 88% 30.06 in 10.0 mi ENE 10.4 mph - N/A Thunderstorm Scattered Clouds
5:15 PM 75.2 °F - 69.8 °F 83% 30.06 in 10.0 mi ENE 12.7 mph 18.4 mph N/A   Clear
5:35 PM 78.8 °F - 71.6 °F 78% 30.06 in 10.0 mi East 15.0 mph 19.6 mph N/A   Scattered Clouds
5:55 PM 77.0 °F - 69.8 °F 78% 30.07 in 10.0 mi ENE 12.7 mph 20.7 mph N/A   Mostly Cloudy
6:15 PM 77.0 °F - 69.8 °F 78% 30.06 in 10.0 mi East 17.3 mph 21.9 mph N/A   Mostly Cloudy
6:35 PM 75.2 °F - 71.6 °F 89% 30.05 in 10.0 mi ENE 12.7 mph - N/A   Partly Cloudy
6:55 PM 75.2 °F - 71.6 °F 89% 30.06 in 10.0 mi East 11.5 mph - N/A   Partly Cloudy
7:15 PM 75.2 °F - 71.6 °F 89% 30.05 in 10.0 mi ENE 11.5 mph - N/A   Scattered Clouds
7:35 PM 75.2 °F - 71.6 °F 89% 30.06 in 10.0 mi East 10.4 mph 17.3 mph N/A   Mostly Cloudy
7:55 PM 75.2 °F - 69.8 °F 83% 30.05 in 10.0 mi East 9.2 mph - N/A   Mostly Cloudy
8:15 PM 73.4 °F - 69.8 °F 88% 30.06 in 10.0 mi ENE 10.4 mph 16.1 mph N/A   Mostly Cloudy
8:35 PM 73.4 °F - 69.8 °F 88% 30.07 in 10.0 mi ENE 6.9 mph - N/A   Mostly Cloudy
8:55 PM 73.4 °F - 69.8 °F 88% 30.08 in 10.0 mi ENE 9.2 mph - N/A   Mostly Cloudy
9:15 PM 73.4 °F - 69.8 °F 88% 30.08 in 10.0 mi ENE 10.4 mph - N/A   Overcast
9:35 PM 73.4 °F - 69.8 °F 88% 30.08 in 10.0 mi ENE 10.4 mph - N/A   Mostly Cloudy
9:55 PM 73.4 °F - 69.8 °F 88% 30.08 in 10.0 mi East 11.5 mph 16.1 mph N/A   Partly Cloudy
10:15 PM 73.4 °F - 69.8 °F 88% 30.08 in 10.0 mi East 10.4 mph - N/A   Partly Cloudy
10:35 PM 73.4 °F - 69.8 °F 88% 30.08 in 10.0 mi ENE 10.4 mph - N/A   Mostly Cloudy
10:55 PM 73.4 °F - 69.8 °F 88% 30.09 in 10.0 mi ENE 10.4 mph - N/A   Scattered Clouds
11:15 PM 73.4 °F - 69.8 °F 88% 30.09 in 10.0 mi ENE 9.2 mph - N/A   Mostly Cloudy
11:35 PM 73.4 °F - 69.8 °F 88% 30.09 in 10.0 mi ENE 12.7 mph 17.3 mph N/A   Overcast
11:55 PM 73.4 °F - 69.8 °F 88% 30.09 in 10.0 mi ENE 10.4 mph 18.4 mph N/A   Overcast